Hurricane Symbol View the latest observations near Atlantic Remnants Of Alberto.

Station LQAT2 - La Quinta, TX MET (8775132) Image indicating link to RSS feed of recent meteorological observations for station LQAT2


Conditions at LQAT2 as of
(4:00 pm CDT)
2100 GMT on 06/20/2024:
     

Click on the graph icon in the table below to see a time series plot of the last five days of that observation.

5-day plot - Wind Direction Wind Direction (WDIR): E ( 100 deg true )
5-day plot - Wind Speed Wind Speed (WSPD): 23 kts
5-day plot - Wind Gust Wind Gust (GST): 30 kts
5-day plot - Atmospheric Pressure Atmospheric Pressure (PRES):29.93 in
5-day plot - Pressure Tendency Pressure Tendency (PTDY):+0.00 in ( Steady )
5-day plot - Air Temperature Air Temperature (ATMP): 86.9 °F
5-day plot - Water Temperature Water Temperature (WTMP): 84.7 °F
5-day plot - Dew Point Dew Point (DEWP): 81.7 °F
5-day plot - Visibility Visibility (VIS): 5.9 nmi
5-day plot - Heat Index Heat Index (HEAT):105.3 °F
5-day plot -  Wind Speed, Wind Gust and Atmospheric Pressure Combined plot of Wind Speed, Gust, and Air Pressure
Previous observations
TIME
(CDT)
5-day plot - Wind Direction
WDIR
 
5-day plot - Wind Speed
WSPD
kts
5-day plot - Wind Gust
GST
kts
5-day plot - Wave Height
WVHT
ft
5-day plot - Dominant Wave Period
DPD
sec
5-day plot - Average Wave Period
APD
sec
5-day plot - Mean Wave Direction
MWD
 
5-day plot - Atmospheric Pressure
PRES
in
5-day plot - Pressure Tendency
PTDY
in
5-day plot - Air Temperature
ATMP
°F
5-day plot - Water Temperature
WTMP
°F
5-day plot - Dew Point
DEWP
°F
5-day plot - Salinity
SAL
psu
5-day plot - Visibility
VIS
nmi
5-day plot - Tide (above MLLW)
TIDE
ft
2024-06-20 03:54 pm E 22 34----29.93- 87.1 84.7 81.9- 5.9-
2024-06-20 03:48 pm E 24 33----29.93- 86.5 84.7 81.5- 5.9-
2024-06-20 03:42 pm E 24 33----29.93- 86.7 84.9 81.7- 5.9-
2024-06-20 03:36 pm E 21 29----29.93- 86.5 84.9 82.2- 5.9-
2024-06-20 03:30 pm E 25 28----29.93- 85.5 84.9 81.9- 5.9-
2024-06-20 03:24 pm E 17 27----29.93- 84.6 84.9 81.5- 5.9-
2024-06-20 03:18 pm E 21 28----29.93- 84.9 84.7 81.1- 5.9-
2024-06-20 03:12 pm E 18 32----29.93- 85.3 84.7 81.3- 5.9-
2024-06-20 03:06 pm E 23 31----29.93- 84.4 84.9 80.2- 5.9-
2024-06-20 03:00 pm E 24 31----29.93+0.00 87.1 84.9 82.4- 5.9-
2024-06-20 02:54 pm E 23 32----29.93- 86.9 84.7 82.2- 5.9-
2024-06-20 02:48 pm E 25 31----29.93- 86.7 84.7 82.4- 5.9-
2024-06-20 02:42 pm E 20 31------ 86.5 84.7----
2024-06-20 02:36 pm E 21 26----29.93- 86.5 84.7 82.4- 5.9-
2024-06-20 02:30 pm E 19 28----29.92-- 84.6-- 5.9-
2024-06-20 02:24 pm E 23 30----29.93-- 84.6-- 5.9-
2024-06-20 02:18 pm E 25 34----29.93- 86.5 84.6 82.0- 5.9-
2024-06-20 02:12 pm E 21 32----29.93- 87.1 84.6 82.8- 5.9-
2024-06-20 02:06 pm E 23 31----29.93- 86.7 84.6 82.8- 5.9-
2024-06-20 02:00 pm E 22 30----29.93+0.01 86.4 84.6 82.8- 5.9-
2024-06-20 01:54 pm E 21 28----29.93- 86.7 84.4 82.9- 5.9-
2024-06-20 01:48 pm E 22 28----29.93- 86.2 84.4 82.0- 5.9-
2024-06-20 01:42 pm E 21 29----29.93- 86.9 84.2 82.9- 5.9-
2024-06-20 01:36 pm E 20 30----29.93- 86.4 84.2 82.6- 5.9-
2024-06-20 01:30 pm E 19 32----29.93- 87.3 84.2 83.3- 5.9-
2024-06-20 01:24 pm E 23 28----29.93- 86.7 84.4 82.9- 5.9-
2024-06-20 01:18 pm E 23 29----29.93- 86.9 84.4 83.1- 5.9-
2024-06-20 01:12 pm E 18 28----29.93- 87.6 84.4 83.8- 5.9-
2024-06-20 01:06 pm E 22 30----29.93- 86.9 84.2 83.1- 5.9-
2024-06-20 01:00 pm E 21 28----29.93+0.03 86.7 84.2 82.9- 5.9-
2024-06-20 12:54 pm E 17 30----29.93- 87.4 84.2 83.7- 5.9-
2024-06-20 12:48 pm E 23 33----29.93- 87.3 84.2 83.3- 5.9-
2024-06-20 12:42 pm E 21 30----29.93- 87.4 84.2 83.5- 5.9-
2024-06-20 12:36 pm E 22 29----29.93- 88.0 84.2 84.0- 5.9-
2024-06-20 12:30 pm E 20 27----29.93- 87.8 84.2 84.2- 5.9-
2024-06-20 12:24 pm E 17 25----29.93- 86.9 84.2 83.1- 5.9-
2024-06-20 12:18 pm E 15 31----29.93- 86.9 84.2 82.9- 5.9-
2024-06-20 12:12 pm E 19 31----29.93- 87.4 84.2 83.5- 5.9-
2024-06-20 12:06 pm E 21 27----29.93- 86.9 84.2 82.9- 5.9-
2024-06-20 12:00 pm E 17 28----29.93+0.05 87.3 84.2 83.3- 5.9-
2024-06-20 11:54 am E 16 27----29.93- 88.2 84.2 84.0- 5.9-
2024-06-20 11:48 am E 20 27----29.93- 87.4 84.2 83.7- 5.9-
2024-06-20 11:42 am E 21 31----29.93- 86.9 84.2 83.3- 5.9-
2024-06-20 11:36 am E 16 27----29.93- 87.4 84.2 84.2- 5.9-
2024-06-20 11:30 am E 20 28----29.93- 86.9 84.2 84.0- 5.9-
2024-06-20 11:24 am E 21 29----29.93- 86.2 84.2 83.5- 5.9-
2024-06-20 11:18 am E 21 28----29.93- 85.5 84.2 82.8- 5.9-
2024-06-20 11:12 amENE 18 27----29.92- 86.0 84.2 83.3- 5.9-
2024-06-20 11:06 am E 13 25----29.92- 86.4 84.2 83.5- 5.9-
2024-06-20 11:00 am E 19 24----29.92+0.05 85.5 84.2 82.8- 5.9-
2024-06-20 10:54 am E 17 26----29.92- 84.9 84.2 82.0- 5.9-
2024-06-20 10:48 am E 17 25----29.92- 85.5 84.2 82.6- 5.9-
2024-06-20 10:42 am E 18 31----29.91- 84.6 84.2 82.0- 5.9-
2024-06-20 10:36 am E 21 27----29.91- 85.1 84.2 82.2- 5.9-
2024-06-20 10:30 am E 19 27----29.91- 85.3 84.2 82.6- 5.9-
2024-06-20 10:24 am E 18 25----29.90- 84.7 84.0 82.0- 5.9-
2024-06-20 10:18 am E 18 26----29.90- 84.6 84.2 82.0- 5.9-
2024-06-20 10:12 am E 18 30----29.90- 84.2 84.2 81.0- 4.3-
2024-06-20 10:06 am E 18 28----29.90- 86.2 84.2 82.6- 5.9-
2024-06-20 10:00 am E 23 30----29.90+0.06 86.4 84.2 82.8- 5.9-
2024-06-20 09:54 am E 16 30----29.90- 86.2 84.2 82.8- 5.9-
2024-06-20 09:48 amENE 19 30----29.89- 85.8 84.2 82.2- 5.9-
2024-06-20 09:42 amENE 19 26----29.89- 85.8 84.2 82.0- 5.9-
2024-06-20 09:36 am E 20 27----29.89- 86.2 84.2 82.2- 5.9-
2024-06-20 09:30 am E 16 31----29.89- 86.0 84.2 81.9- 5.9-
2024-06-20 09:24 am E 17 28----29.89- 86.4 84.2 82.2- 5.9-
2024-06-20 09:18 am E 20 29----29.89- 86.0 84.2 82.0- 5.9-
2024-06-20 09:12 am E 20 29----29.89- 85.8 84.2 81.9- 5.9-
2024-06-20 09:06 amENE 17 30----29.88- 86.4 84.2 82.8- 5.9-
2024-06-20 09:00 amENE 20 31----29.88+0.06 85.6 84.2 82.4- 5.9-
2024-06-20 08:54 am E 22 29----29.88- 85.3 84.2 82.4- 5.9-
2024-06-20 08:48 amENE 18 27----29.88- 85.3 84.2 82.8- 5.9-
2024-06-20 08:42 amENE 12 21----29.88- 84.6 84.2 82.0- 5.9-
2024-06-20 08:36 amENE 17 26----29.88- 84.4 84.2 81.9- 5.9-
2024-06-20 08:30 amENE 15 24----29.87- 84.7 84.2 82.0- 5.9-
2024-06-20 08:24 amENE 14 21----29.87- 84.7 84.2 81.9- 5.9-
2024-06-20 08:18 amENE 14 24----29.87- 84.9 84.2 82.0- 5.9-
2024-06-20 08:12 amENE 14 21----29.86- 84.7 84.2 82.0- 5.9-
2024-06-20 08:06 amENE 15 23----29.87- 84.6 84.2 81.7- 5.9-
2024-06-20 08:00 am E 19 26----29.87+0.06 84.4 84.2 81.5- 5.9-
2024-06-20 07:54 am E 12 24----29.86- 84.4 84.2 81.5- 5.9-
2024-06-20 07:48 am E 13 21----29.86- 84.4 84.2 81.7- 5.9-
2024-06-20 07:42 am E 14 21----29.86- 84.2 84.2 81.7- 5.9-
2024-06-20 07:36 amENE 20 25----29.85- 84.0 84.2 81.9- 5.9-
2024-06-20 07:30 amENE 17 24----29.85- 83.8 84.2 81.9- 5.9-
2024-06-20 07:24 am E 15 23----29.85- 83.5 84.2 81.5- 5.9-
2024-06-20 07:18 amENE 13 19----29.85- 83.1 84.2 81.0- 5.9-
2024-06-20 07:12 amENE 14 27----29.84- 83.1 84.2 80.8- 5.9-
2024-06-20 07:06 amENE 17 22----29.84- 83.1 84.2 80.6- 5.9-
2024-06-20 07:00 amENE 11 16----29.84+0.03 83.1 84.2 80.6- 5.9-
2024-06-20 06:54 amENE 14 23----29.84- 83.1 84.2 80.4- 5.9-
2024-06-20 06:48 am E 14 21----29.84- 83.3 84.2 80.6- 5.9-
2024-06-20 06:42 am E 14 21----29.83- 83.1 84.2 80.2- 5.9-
2024-06-20 06:36 am E 15 22----29.84- 83.1 84.2 80.2- 5.9-
2024-06-20 06:30 am E 16 23----29.84- 82.9 84.2 79.9- 5.9-
2024-06-20 06:24 am E 13 18----29.83- 82.8 84.2 79.7- 5.9-
2024-06-20 06:18 am E 13 21----29.83- 82.6 84.2 79.5- 5.9-
2024-06-20 06:12 am E 16 24----29.83- 82.8 84.2 79.9- 5.9-
2024-06-20 06:06 am E 15 25----29.83- 82.8 84.2 80.2- 5.9-
2024-06-20 06:00 am E 18 24----29.83+0.01 82.9 84.2 80.6- 5.9-
2024-06-20 05:54 am E 17 25----29.82- 83.5 84.2 81.1- 5.9-
2024-06-20 05:48 amENE 17 28----29.82- 83.5 84.2 81.1- 5.9-
2024-06-20 05:42 am E 16 26----29.82- 83.5 84.2 81.1- 5.9-
2024-06-20 05:36 amENE 17 29----29.82- 83.5 84.2 81.1- 5.9-
2024-06-20 05:30 amENE 18 26----29.81- 83.5 84.2 81.1- 5.9-
2024-06-20 05:24 amENE 17 22----29.81- 83.5 84.2 81.1- 5.9-
2024-06-20 05:18 am E 15 24----29.81- 83.5 84.2 81.1- 5.9-
2024-06-20 05:12 am E 19 25----29.81- 83.5 84.2 81.1- 5.9-
2024-06-20 05:06 amENE 19 27----29.81- 83.7 84.2 81.3- 5.9-
2024-06-20 05:00 am E 19 27----29.81+0.00 83.7 84.2 81.3- 5.9-
2024-06-20 04:54 am E 16 25----29.81- 83.5 84.4 81.1- 5.9-
2024-06-20 04:48 am E 16 24----29.81- 83.5 84.4 81.1- 5.9-
2024-06-20 04:42 am E 18 26----29.81- 83.7 84.4 81.1- 5.9-
2024-06-20 04:36 am E 19 23----29.81- 83.7 84.4 81.0- 5.9-
2024-06-20 04:30 am E 17 26----29.81- 83.7 84.4 81.0- 5.9-
2024-06-20 04:24 am E 18 27----29.81- 83.7 84.4 81.0- 5.9-
2024-06-20 04:18 am E 19 29----29.81- 83.7 84.4 81.0- 5.9-
2024-06-20 04:12 am E 20 28----29.81- 83.7 84.4 81.1- 5.9-
2024-06-20 04:06 amENE 19 29----29.81- 83.7 84.4 81.0- 5.9-
2024-06-20 04:00 am E 17 28----29.81+0.00 83.7 84.4 81.1- 5.9-
2024-06-20 03:54 am E 16 26----29.81- 83.5 84.4 81.1- 5.9-
2024-06-20 03:48 am E 13 21----29.80- 83.5 84.4 81.1- 5.9-
2024-06-20 03:42 am E 17 30----29.80- 83.7 84.4 81.1- 5.9-
2024-06-20 03:36 am E 16 26----29.80- 83.5 84.4 81.0- 5.9-
2024-06-20 03:30 am E 18 25----29.80- 83.5 84.4 81.1- 5.9-
2024-06-20 03:24 am E 19 26----29.81- 83.7 84.4 81.3- 5.9-
2024-06-20 03:18 am E 18 29----29.81- 83.5 84.4 81.1- 5.9-
2024-06-20 03:12 amENE 21 25----29.81- 83.7 84.4 81.1- 5.9-
2024-06-20 03:06 amENE 15 24----29.81- 83.5 84.4 80.8- 5.9-
2024-06-20 03:00 amENE 17 26----29.81+0.00 83.5 84.4 80.8- 5.9-
2024-06-20 02:54 amENE 20 30----29.81- 83.7 84.6 81.1- 5.9-
2024-06-20 02:48 amENE 22 31----29.81- 83.7 84.6 81.1- 5.9-
2024-06-20 02:42 amENE 20 29----29.81- 83.7 84.6 81.5- 5.9-
2024-06-20 02:36 am E 21 32----29.81- 83.7 84.6 81.5- 5.9-
2024-06-20 02:30 amENE 19 27----29.81- 83.7 84.6 81.7- 5.9-
2024-06-20 02:24 amENE 17 26----29.81- 83.5 84.6 81.5- 5.9-
2024-06-20 02:18 am E 19 26----29.81- 83.5- 81.3- 5.9-
2024-06-20 02:12 amENE 17 25----29.81- 83.7 84.6 81.5- 5.9-
2024-06-20 02:06 amENE 17 24----29.81- 83.5 84.6 81.1- 5.9-
2024-06-20 02:00 amENE 18 28----29.81+0.01 83.7 84.6 81.5- 5.9-
2024-06-20 01:54 amENE 18 29----29.82- 83.5 84.6 81.3- 5.9-
2024-06-20 01:48 amENE 15 26----29.82- 83.7- 81.5- 5.9-
2024-06-20 01:42 amENE 17 26----29.82- 83.7 84.6 81.5- 5.9-
2024-06-20 01:36 am E 21 31----29.82- 83.8 84.6 81.9- 5.9-
2024-06-20 01:30 amENE 19 26----29.82- 83.5 84.6 81.9- 5.9-
2024-06-20 01:24 am E 23 27----29.82- 83.5 84.6 82.0- 5.9-
2024-06-20 01:18 amENE 17 30----29.82- 83.5 84.6 82.0- 5.9-
2024-06-20 01:12 amENE 21 30----29.81- 83.7 84.6 82.2- 5.9-
2024-06-20 01:06 amENE 20 24----29.81- 83.3 84.6 81.9- 5.9-
2024-06-20 01:00 amENE 19 30----29.81+0.04 83.3 84.6 81.9- 5.9-
2024-06-20 12:54 amENE 18 26----29.82- 83.3 84.6 82.0- 5.9-
2024-06-20 12:48 amENE 21 29----29.81- 83.1- 82.0- 5.9-
2024-06-20 12:42 amENE 22 31----29.81- 83.3 84.6 82.2- 5.9-
2024-06-20 12:36 amENE 19 26----29.81- 83.1 84.6 82.0- 5.9-
2024-06-20 12:30 amENE 19 29----29.81- 83.1 84.6 82.2- 5.9-
2024-06-20 12:24 amENE 18 25----29.81- 83.1 84.6 82.2- 5.9-
2024-06-20 12:18 amENE 18 28----29.81- 83.1 84.6 82.2- 5.9-
2024-06-20 12:12 amENE 16 25----29.81- 83.1 84.6 82.2- 5.9-
2024-06-20 12:06 amENE 18 28----29.81- 83.1 84.6 82.2- 5.9-
2024-06-20 12:00 amENE 16 24----29.81+0.04 83.1 84.6 82.0- 5.9-
2024-06-19 11:54 pmENE 19 28----29.81- 83.3 84.6 82.4- 5.9-
2024-06-19 11:48 pmENE 17 28----29.81- 83.1 84.6 82.2- 5.9-
2024-06-19 11:42 pmENE 18 27----29.81- 83.1 84.6 82.2- 5.9-
2024-06-19 11:36 pmENE 20 27----29.81- 83.3 84.6 82.6- 5.9-
2024-06-19 11:30 pmENE 19 31----29.81- 82.9 84.6 82.4- 5.9-
2024-06-19 11:24 pmENE 19 29----29.81- 82.8 84.6 82.4- 5.9-
2024-06-19 11:18 pmENE 17 29----29.81- 82.8 84.6 82.4- 5.9-
2024-06-19 11:12 pmENE 20 30----29.80- 82.8 84.6 82.4- 5.9-
2024-06-19 11:06 pmENE 16 27----29.80- 82.6 84.6 82.4- 5.9-
2024-06-19 11:00 pmENE 19 28----29.80+0.05 82.4 84.6 82.4- 5.9-
2024-06-19 10:54 pmENE 18 29----29.80- 82.6 84.6 82.6- 5.9-
2024-06-19 10:48 pmENE 19 27----29.80- 82.6 84.6 82.6- 5.9-
2024-06-19 10:42 pmENE 22 33----29.80- 82.4 84.6 82.4- 5.9-
2024-06-19 10:36 pmENE 23 29----29.79- 81.9 84.6 81.9- 5.9-
2024-06-19 10:30 pmENE 19 27----29.79- 81.7 84.7 81.7- 2.2-
2024-06-19 10:24 pmENE 23 30----29.79- 82.2 84.7 82.2- 5.9-
2024-06-19 10:18 pmENE 21 31----29.79- 81.9 84.7 81.9- 3.2-
2024-06-19 10:12 pmENE 20 27----29.78- 81.3 84.7 81.3- 1.6-
2024-06-19 10:06 pmENE 19 29----29.78- 81.9 84.7 81.9- 1.5-
2024-06-19 10:00 pmENE 17 26----29.78+0.04 82.4 84.7 82.4- 4.3-
2024-06-19 09:54 pmENE 20 26----29.78- 82.8 84.7 82.8- 5.9-
2024-06-19 09:48 pmENE 22 31----29.78- 82.8 84.7 82.8- 5.9-
2024-06-19 09:42 pmENE 17 25----29.78- 82.2 84.7 82.2- 5.9-
2024-06-19 09:36 pmENE 20 26----29.78- 82.0 84.7 82.0- 5.9-
2024-06-19 09:30 pmENE 17 21----29.77- 81.9 84.7 81.9- 5.9-
2024-06-19 09:24 pmENE 13 20----29.77- 81.7 84.7 81.7- 5.9-
2024-06-19 09:18 pmENE 13 22------ 81.3- 81.3- 5.9-
2024-06-19 09:12 pmENE 18 26----29.77- 81.5 84.7 81.5- 5.9-
2024-06-19 09:06 pmENE 16 23----29.78- 81.7 84.7 81.7- 5.9-
2024-06-19 09:00 pmENE 14 22----29.77+0.03 81.7 84.7 81.7- 5.9-
2024-06-19 08:54 pmENE 16 29----29.77- 82.0 84.7 82.0- 5.9-
2024-06-19 08:48 pm NE 18 24----29.77- 82.2 84.7 82.2- 5.9-
2024-06-19 08:42 pmENE 14 22----29.77- 81.9 84.7 81.9- 5.9-
2024-06-19 08:36 pmENE 17 24----29.77- 81.9 84.7 81.9- 5.9-
2024-06-19 08:30 pmENE 16 20----29.76- 81.9 84.7 81.9- 5.9-
2024-06-19 08:24 pmENE 15 24----29.76- 81.9 84.7 81.9- 5.9-
2024-06-19 08:18 pmENE 16 21----29.76- 81.5 84.7 81.5- 5.9-
2024-06-19 08:12 pmENE 15 24----29.76- 81.3 84.7 81.3- 5.9-
2024-06-19 08:06 pmENE 17 28----29.76- 81.3 84.7 81.3- 5.9-
2024-06-19 08:00 pmENE 20 29----29.75+0.01 81.9 84.6 81.9- 4.9-
2024-06-19 07:54 pmENE 17 21----29.75- 82.6 84.6 82.6- 5.9-
2024-06-19 07:48 pm E 16 22----29.75- 82.2 84.7 82.2- 5.9-
2024-06-19 07:42 pmENE 15 21----29.76- 82.2 84.7 82.2- 5.9-
2024-06-19 07:36 pmENE 14 23----29.76- 81.9 84.7 81.9- 5.9-
2024-06-19 07:30 pmENE 14 20----29.75- 81.3 84.7 81.3- 5.9-
2024-06-19 07:24 pmENE 19 27----29.75- 81.3 84.7 81.3- 5.9-
2024-06-19 07:18 pmENE 18 23----29.75- 81.0 84.7 81.0- 5.9-
2024-06-19 07:12 pmENE 15 25----29.75- 80.2 84.7 80.2- 5.9-
2024-06-19 07:06 pmENE 20 26----29.74- 79.9 84.7 79.9- 5.9-
2024-06-19 07:00 pmENE 23 28----29.74+0.00 80.1 84.7 80.1- 1.3-
2024-06-19 06:54 pmENE 21 28----29.74- 80.4 84.7 80.4- 2.4-
2024-06-19 06:48 pmNNE 19 24----29.74- 80.1 84.7 80.1- 3.2-
2024-06-19 06:42 pm NE 15 23----29.73- 79.9 84.7 79.9- 5.9-
2024-06-19 06:36 pm NE 15 20----29.72- 80.1 84.7 80.1- 5.9-
2024-06-19 06:30 pmENE 17 26----29.73- 80.4 84.7 80.4- 5.9-
2024-06-19 06:24 pmENE 16 20----29.73- 80.2 84.7 80.2- 5.9-
2024-06-19 06:18 pmENE 15 23----29.74- 80.1 84.7 80.1- 5.9-
2024-06-19 06:12 pmENE 18 29----29.74- 80.4 84.7 80.4- 4.9-
2024-06-19 06:06 pmENE 12 22----29.73- 80.8 84.7 80.8- 4.9-
2024-06-19 06:00 pmENE 17 25----29.74-0.01 81.5 84.7 81.5- 1.0-
2024-06-19 05:54 pmENE 17 26----29.74- 82.4 84.7 82.4- 4.3-
2024-06-19 05:48 pmENE 16 24----29.73-- 84.7-- 5.9-
2024-06-19 05:42 pmENE 14 23----29.73-- 84.7-- 5.9-
2024-06-19 05:36 pmENE 9 22----29.74-- 84.7-- 4.9-
2024-06-19 05:30 pm NE 15 24----29.74- 81.7 84.7 81.7---
2024-06-19 05:24 pmENE 12 17----29.74- 81.3 84.7 81.3---
2024-06-19 05:18 pm NE 11 19----29.74- 80.6- 80.6- 5.9-
2024-06-19 05:12 pmNNE 15 20----29.74- 80.2- 80.2- 5.9-
2024-06-19 05:06 pm NE 15 22----29.74- 80.6- 80.6- 5.9-
2024-06-19 05:00 pm NE 15 21----29.75-0.02 80.6 84.9 80.6- 5.9-
2024-06-19 04:54 pmENE 12 20----29.74- 80.6 84.7 80.6- 5.9-
2024-06-19 04:48 pmENE 16 20----29.75- 80.1 84.7 80.1- 5.9-
2024-06-19 04:42 pmNNE 16 21----29.74- 79.5 84.9 79.5- 5.9-
2024-06-19 04:36 pm N 10 18----29.73- 79.7 84.9 79.7- 5.9-
2024-06-19 04:30 pmNNE 14 21----29.73- 79.5 84.9 79.5- 5.9-
2024-06-19 04:24 pmNNE 16 19----29.73- 79.2 85.1 79.2- 5.9-
2024-06-19 04:18 pmNNE 12 15----29.73- 79.0 85.1 79.0- 5.9-
2024-06-19 04:12 pm N 8 14----29.74- 78.4 85.1 78.4- 5.9-
2024-06-19 04:06 pmNNE 12 17----29.74- 78.4 85.1 78.4- 5.9-
2024-06-19 04:00 pm N 8 14----29.74-0.03 78.6 85.1 78.6- 4.3-
2024-06-19 03:54 pmNNE 13 17----29.75- 78.8 85.1 78.8- 5.9-